Temp
-6 -6 -6 -5 -6 -6 -7 -7 -7 -6 -7 -7 -7 -7 -7 -7 -6 -7 -6 -6 -6 -6 -6 -6 -6 -6 -6 -6 -6 -6 -7 -6 -6 -6 -6 -6 -5 -6 -6 -7 -6 -7 -6
-7 -7 -7 -6 -6 -6 -7 -7 -7 -7 -7 -7 -7 -7 -7 -7 -7 -7 -7 -7 -6 -6 -6 -6 -6 -6 -6 -6 -6 -6 -6 -6 -6 -6 -6 -6 -6 -6 -6 -6 -6 -6 -6
-7 -7 -7 -7 -7 -7 -6 -7 -7 -7 -7 -7 -7 -7 -7 -7 -7 -7 -7 -7 -7 -6 -6 -6 -6 -6 -6 -6 -6 -6 -6 -6 -6 -6 -6 -6 -6 -6 -6 -6 -6 -6 -6
-6 -6 -7 -7 -8 -7 -7 -7 -7 -7 -7 -7 -7 -7 -7 -6 -6 -7 -6 -6 -7 -6 -6 -6 -6 -6 -6 -6 -6 -6 -6 -6 -6 -6 -6 -6 -6 -6 -6 -6 -7 -6 -6
-7 -6 -6 -6 -7 -7 -8 -7 -7 -7 -7 -6 -7 -7 -7 -7 -6 -6 -6 -6 -6 -6 -6 -6 -6 -6 -6 -5 -5 -5 -5 -5 -5 -6 -6 -6 -6 -6 -6 -6 -6 -6 -6
-8 -7 -6 -6 -7 -7 -7 -7 -7 -8 -8 -7 -7 -6 -6 -7 -6 -6 -6 -6 -6 -6 -6 -6 -6 -6 -6 -5 -5 -5 -5 -5 -5 -5 -5 -5 -5 -5 -5 -6 -6 -6 -6
-7 -7 -7 -7 -6 -7 -6 -7 -7 -8 -7 -8 -7 -7 -7 -7 -7 -7 -7 -6 -6 -6 -6 -6 -6 -6 -6 -5 -5 -5 -5 -5 -5 -5 -5 -5 -6 -5 -6 -6 -6 -6 -6
-7 -7 -8 -7 -7 -7 -7 -7 -7 -7 -8 -8 -8 -7 -7 -7 -7 -6 -6 -6 -6 -6 -6 -6 -6 -6 -6 -5 -5 -5 -6 -5 -5 -5 -6 -6 -6 -6 -6 -6 -6 -6 -6
-8 -8 -8 -8 -9 -7 -7 -8 -8 -8 -8 -8 -8 -8 -7 -7 -7 -7 -7 -7 -7 -7 -6 -6 -6 -6 -6 -6 -5 -5 -5 -5 -5 -5 -5 -5 -6 -5 -5 -5 -6 -6 -6
-9 -8 -8 -8 -8 -8 -9 -9 -9 -7 -7 -8 -8 -7 -7 -7 -7 -7 -8 -7 -7 -7 -6 -6 -6 -6 -6 -5 -5 -5 -6 -7 -5 -5 -5 -6 -6 -6 -6 -5 -5 -5 -6
-9 -9 -9 -9 -9 -8 -8 -8 -8 -8 -7 -8 -8 -8 -8 -8 -8 -8 -8 -8 -8 -7 -7 -6 -6 -6 -6 -6 -6 -5 -5 -5 -5 -5 -6 -5 -6 -5 -5 -5 -5 -4 -5
-10 -9 -9 -9 -9 -9 -9 -9 -8 -8 -8 -8 -8 -7 -7 -8 -8 -8 -8 -7 -7 -7 -7 -7 -7 -6 -6 -7 -6 -6 -6 -6 -5 -5 -5 -5 -6 -6 -6 -6 -5 -5 -4
-11 -10 -10 -10 -10 -9 -9 -9 -9 -8 -8 -8 -8 -9 -8 -8 -8 -8 -7 -7 -7 -7 -7 -7 -7 -7 -7 -7 -7 -7 -6 -6 -6 -6 -5 -5 -6 -6 -6 -6 -5 -5 -5
-12 -11 -11 -10 -10 -10 -10 -10 -10 -9 -9 -9 -8 -8 -8 -8 -8 -8 -8 -8 -7 -7 -8 -8 -8 -7 -7 -7 -7 -6 -7 -7 -6 -6 -5 -5 -5 -6 -6 -6 -6 -6 -5
-12 -12 -12 -12 -11 -11 -10 -10 -10 -10 -10 -10 -9 -9 -9 -9 -8 -8 -8 -8 -8 -7 -7 -7 -8 -8 -8 -7 -7 -6 -7 -6 -6 -6 -6 -6 -5 -5 -5 -5 -5 -5 -5
-12 -12 -12 -12 -12 -12 -12 -12 -11 -11 -10 -10 -10 -10 -10 -9 -9 -9 -8 -8 -8 -8 -8 -8 -7 -8 -8 -8 -8 -7 -6 -7 -7 -7 -6 -6 -6 -6 -6 -6 -5 -5 -5
-13 -13 -13 -13 -13 -13 -13 -13 -13 -12 -12 -11 -11 -11 -11 -10 -10 -10 -9 -9 -9 -8 -8 -8 -8 -8 -8 -7 -8 -8 -7 -7 -7 -7 -7 -7 -7 -6 -6 -6 -6 -6 -6
-14 -14 -14 -14 -13 -13 -13 -13 -13 -13 -13 -13 -12 -12 -12 -11 -11 -11 -10 -10 -10 -9 -9 -8 -8 -8 -8 -8 -8 -7 -8 -7 -7 -7 -7 -7 -7 -7 -7 -6 -6 -6 -6
-15 -15 -15 -15 -15 -14 -14 -14 -14 -14 -14 -14 -14 -14 -13 -12 -12 -12 -11 -11 -11 -10 -10 -9 -9 -9 -8 -8 -8 -7 -7 -8 -7 -7 -7 -7 -7 -7 -6 -6 -6 -7 -7
-16 -16 -16 -15 -15 -15 -15 -15 -15 -15 -15 -15 -15 -15 -14 -14 -13 -13 -13 -12 -11 -11 -11 -10 -10 -10 -9 -9 -9 -8 -8 -7 -7 -7 -7 -7 -7 -7 -7 -6 -6 -6 -6
-16 -16 -16 -16 -16 -15 -15 -15 -15 -15 -15 -15 -15 -15 -14 -14 -14 -14 -14 -14 -14 -13 -12 -11 -10 -10 -10 -10 -9 -9 -8 -8 -8 -7 -7 -7 -7 -7 -7 -7 -7 -6 -6
-17 -17 -16 -16 -16 -16 -16 -16 -15 -15 -15 -15 -15 -15 -15 -15 -15 -15 -15 -15 -14 -14 -14 -13 -12 -11 -11 -10 -10 -9 -9 -9 -8 -8 -8 -8 -7 -7 -7 -7 -7 -7 -6
-18 -18 -18 -17 -17 -17 -17 -16 -16 -16 -15 -15 -15 -15 -15 -15 -15 -14 -14 -14 -14 -14 -14 -14 -13 -13 -12 -12 -11 -10 -9 -9 -9 -9 -8 -8 -8 -8 -7 -7 -7 -7 -7
-19 -19 -19 -19 -19 -19 -18 -18 -18 -17 -17 -16 -16 -15 -15 -15 -15 -15 -14 -14 -14 -14 -14 -14 -14 -14 -13 -13 -12 -12 -11 -10 -9 -9 -9 -8 -8 -8 -8 -8 -8 -8 -8
-20 -20 -20 -20 -21 -21 -21 -20 -20 -20 -19 -18 -17 -16 -16 -15 -15 -15 -15 -15 -15 -15 -15 -14 -14 -14 -13 -13 -13 -12 -12 -11 -11 -10 -9 -9 -9 -9 -8 -8 -8 -8 -8
-22 -22 -22 -21 -21 -21 -22 -22 -21 -20 -20 -20 -19 -18 -18 -18 -18 -18 -18 -17 -17 -17 -17 -17 -16 -16 -15 -15 -14 -13 -13 -12 -12 -11 -11 -10 -9 -9 -9 -9 -9 -8 -8
Height
5925 5929 5934 5937 5937 5940 5942 5944 5945 5948 5951 5952 5952 5955 5956 5956 5956 5956 5958 5960 5961 5962 5963 5966 5967 5968 5969 5970 5970 5971 5971 5972 5972 5971 5971 5971 5970 5971 5970 5968 5967 5965 5964
5921 5923 5926 5931 5934 5935 5937 5941 5942 5944 5947 5949 5950 5951 5953 5955 5955 5955 5955 5957 5960 5960 5961 5962 5964 5966 5967 5969 5970 5970 5970 5970 5970 5970 5969 5970 5969 5969 5967 5966 5965 5964 5962
5914 5916 5920 5924 5928 5931 5934 5936 5938 5939 5942 5945 5947 5949 5951 5953 5953 5954 5954 5954 5956 5958 5959 5960 5961 5963 5964 5965 5966 5967 5967 5968 5968 5967 5967 5967 5966 5966 5966 5964 5963 5961 5960
5907 5908 5912 5915 5922 5926 5927 5932 5935 5936 5938 5941 5943 5945 5947 5948 5950 5952 5953 5954 5954 5955 5956 5957 5958 5960 5961 5962 5962 5963 5964 5964 5964 5964 5964 5964 5963 5963 5962 5961 5960 5958 5956
5899 5903 5907 5909 5913 5915 5918 5924 5928 5930 5933 5935 5937 5940 5942 5944 5947 5950 5950 5952 5954 5953 5953 5955 5955 5957 5958 5959 5960 5960 5961 5961 5961 5961 5961 5961 5960 5960 5959 5959 5957 5954 5953
5896 5899 5898 5901 5905 5907 5911 5915 5918 5922 5926 5930 5932 5935 5937 5939 5941 5944 5946 5948 5951 5951 5951 5952 5954 5954 5955 5955 5956 5957 5957 5958 5958 5958 5958 5958 5957 5956 5955 5954 5953 5951 5948
5892 5894 5893 5896 5897 5901 5902 5906 5909 5915 5919 5923 5927 5930 5933 5934 5937 5939 5941 5942 5945 5947 5947 5947 5949 5950 5950 5951 5951 5953 5953 5954 5954 5954 5954 5954 5954 5954 5952 5951 5949 5947 5946
5888 5890 5892 5890 5892 5893 5897 5900 5902 5906 5910 5916 5918 5922 5925 5928 5931 5933 5936 5938 5939 5941 5942 5942 5942 5943 5944 5946 5947 5949 5949 5950 5949 5950 5949 5949 5950 5949 5948 5947 5945 5944 5942
5882 5884 5886 5888 5887 5889 5892 5896 5898 5900 5903 5905 5909 5912 5916 5919 5921 5926 5926 5930 5933 5933 5935 5937 5937 5937 5937 5939 5942 5943 5944 5944 5943 5944 5945 5944 5944 5943 5943 5943 5941 5939 5938
5872 5875 5876 5879 5884 5887 5888 5890 5891 5893 5896 5899 5900 5904 5908 5912 5914 5916 5916 5919 5923 5925 5926 5927 5927 5929 5930 5930 5933 5935 5937 5935 5933 5935 5937 5937 5936 5936 5934 5933 5932 5932 5932
5864 5867 5869 5870 5872 5876 5880 5885 5887 5889 5890 5893 5896 5899 5902 5903 5905 5907 5910 5911 5913 5915 5918 5919 5919 5921 5921 5922 5922 5924 5926 5927 5927 5927 5927 5927 5927 5926 5925 5924 5924 5924 5925
5857 5858 5860 5863 5864 5867 5870 5873 5876 5880 5883 5884 5886 5888 5890 5893 5895 5898 5900 5902 5903 5905 5907 5908 5908 5910 5911 5912 5913 5913 5915 5916 5917 5917 5918 5920 5919 5919 5917 5915 5915 5915 5915
5845 5850 5852 5853 5855 5857 5858 5861 5864 5867 5871 5874 5877 5879 5880 5882 5884 5885 5887 5889 5891 5893 5896 5897 5897 5898 5900 5901 5902 5902 5902 5904 5905 5906 5907 5909 5908 5908 5908 5907 5906 5906 5906
5830 5833 5837 5841 5844 5846 5848 5849 5852 5855 5859 5861 5863 5865 5867 5868 5870 5873 5875 5877 5878 5880 5883 5884 5885 5886 5887 5889 5890 5889 5890 5890 5892 5894 5895 5897 5897 5897 5898 5897 5897 5896 5896
5818 5820 5823 5826 5829 5832 5835 5838 5839 5840 5843 5844 5846 5848 5851 5852 5853 5858 5861 5863 5864 5867 5869 5871 5871 5873 5874 5875 5878 5878 5878 5879 5880 5881 5882 5884 5885 5885 5886 5885 5885 5885 5887
5803 5805 5807 5810 5813 5815 5818 5821 5823 5825 5827 5828 5829 5832 5834 5837 5841 5842 5844 5848 5850 5854 5857 5858 5858 5859 5860 5862 5864 5866 5866 5867 5868 5869 5870 5871 5872 5872 5872 5873 5872 5872 5874
5789 5791 5793 5795 5796 5799 5801 5804 5805 5808 5810 5811 5812 5815 5817 5819 5821 5824 5826 5827 5829 5834 5837 5839 5842 5844 5845 5847 5849 5852 5854 5853 5854 5855 5857 5858 5859 5859 5859 5860 5861 5859 5859
5772 5774 5777 5779 5781 5783 5785 5787 5789 5791 5791 5794 5795 5796 5798 5800 5803 5805 5807 5809 5811 5811 5815 5818 5823 5826 5828 5830 5832 5835 5837 5839 5839 5840 5842 5844 5845 5845 5847 5848 5847 5846 5845
5757 5758 5760 5761 5762 5764 5766 5767 5769 5771 5773 5775 5775 5774 5776 5779 5782 5784 5787 5788 5791 5793 5793 5796 5799 5803 5808 5811 5813 5816 5819 5822 5823 5825 5826 5827 5829 5830 5833 5834 5834 5833 5832
5741 5742 5744 5744 5745 5746 5747 5748 5749 5750 5752 5753 5754 5755 5755 5756 5758 5760 5761 5763 5765 5769 5772 5773 5776 5780 5784 5788 5790 5793 5798 5801 5804 5806 5809 5811 5812 5813 5815 5818 5819 5819 5819
5724 5725 5726 5727 5727 5727 5727 5727 5728 5729 5730 5731 5732 5733 5734 5735 5737 5737 5738 5738 5739 5742 5744 5747 5752 5756 5760 5762 5764 5768 5774 5779 5782 5785 5788 5791 5794 5797 5797 5800 5801 5804 5803
5707 5707 5707 5706 5706 5706 5706 5706 5705 5705 5706 5707 5708 5709 5709 5710 5712 5713 5714 5714 5714 5714 5716 5718 5722 5727 5731 5735 5737 5740 5747 5753 5757 5761 5765 5769 5773 5776 5779 5782 5783 5785 5787
5690 5690 5689 5689 5687 5686 5684 5683 5681 5681 5680 5679 5680 5681 5681 5682 5682 5683 5684 5685 5686 5687 5687 5689 5692 5697 5699 5703 5709 5712 5717 5724 5730 5734 5740 5745 5750 5754 5757 5761 5765 5767 5768
5674 5674 5673 5671 5669 5667 5665 5662 5660 5657 5654 5652 5651 5652 5653 5653 5653 5652 5652 5652 5653 5654 5655 5656 5659 5665 5669 5669 5676 5682 5686 5694 5700 5707 5712 5719 5725 5730 5734 5739 5744 5748 5750
5658 5657 5655 5654 5651 5648 5646 5641 5638 5635 5630 5626 5623 5623 5625 5622 5619 5617 5617 5617 5618 5618 5619 5620 5622 5627 5633 5637 5643 5649 5654 5661 5668 5676 5684 5691 5699 5705 5710 5714 5720 5725 5729
5644 5643 5641 5638 5635 5631 5626 5621 5617 5613 5606 5599 5597 5597 5594 5590 5587 5584 5583 5583 5583 5583 5583 5584 5586 5590 5597 5603 5609 5615 5622 5629 5637 5645 5653 5663 5671 5678 5682 5689 5696 5701 5707
Wind_Speed
23 21 21 24 22 19 18 17 17 16 14 11 11 9 8 8 9 10 11 11 11 9 9 8 7 6 6 7 8 8 9 9 10 11 12 12 14 10 12 13 14 15 16
25 25 24 26 27 23 21 20 20 19 19 18 15 15 13 11 10 10 10 9 10 11 10 9 8 8 8 8 8 8 9 11 13 13 13 14 15 13 15 17 17 17 18
26 28 26 27 28 29 25 24 23 22 22 20 18 16 15 14 12 11 11 10 10 10 10 12 13 12 11 10 10 10 10 11 13 13 15 15 17 16 18 18 18 19 20
32 32 29 29 28 33 29 26 25 26 25 24 22 21 20 18 16 15 13 11 12 11 10 10 11 13 14 16 16 14 14 15 15 16 16 16 17 16 17 18 20 21 23
13 33 25 32 31 35 36 32 28 25 26 26 25 23 21 21 21 21 17 15 15 13 12 12 12 12 12 13 15 16 17 18 19 19 20 20 20 20 20 21 23 26 27
13 22 27 38 33 33 34 36 33 29 28 27 26 26 25 25 25 23 22 22 20 18 16 15 16 16 16 16 16 16 16 16 18 18 19 20 20 20 20 20 19 21 24
22 17 15 31 34 33 31 32 34 34 32 30 29 28 27 27 29 28 28 26 25 24 22 20 20 21 20 19 18 18 18 18 19 19 19 20 19 19 19 20 19 21 23
25 25 23 18 19 19 17 27 25 41 38 34 33 31 30 29 31 30 30 29 28 28 28 27 26 27 26 26 24 23 22 21 22 20 21 22 20 21 20 20 23 23 24
27 27 24 25 28 19 19 15 23 30 39 36 31 30 30 34 35 34 30 29 30 29 32 31 30 31 32 32 29 29 28 27 28 28 25 25 25 25 24 22 24 25 25
30 30 30 28 24 24 26 26 23 21 20 30 31 31 31 34 33 34 34 34 35 35 36 35 35 35 36 36 33 34 32 33 36 34 31 29 29 28 29 28 28 27 26
35 34 35 35 33 30 28 28 28 28 29 29 29 30 32 32 32 34 36 36 36 36 38 39 39 39 38 39 40 39 38 38 38 38 37 36 34 34 34 33 32 30 28
37 39 39 39 39 38 36 35 33 31 32 34 36 36 34 35 35 36 38 40 37 39 40 41 41 41 42 41 42 43 42 42 42 43 43 39 38 36 38 37 35 35 33
42 41 41 42 42 43 43 42 42 41 39 38 38 39 40 41 41 41 43 44 41 40 44 45 42 41 41 42 40 45 47 46 46 45 45 44 44 42 40 40 40 38 37
46 45 44 45 46 47 47 47 46 45 44 45 44 44 44 45 45 45 44 45 45 44 44 46 48 46 46 42 42 43 46 49 51 49 47 46 46 45 44 44 43 43 42
49 48 47 47 47 48 49 51 51 52 50 49 50 50 50 50 50 49 49 50 49 49 48 48 50 51 49 47 44 42 46 50 49 42 46 47 48 47 46 48 47 46 44
49 50 49 48 46 45 47 49 50 52 54 54 55 55 55 55 55 57 57 54 53 53 52 52 53 52 52 53 51 48 46 48 47 46 47 47 46 47 45 47 48 48 48
46 47 48 48 48 48 47 46 48 50 51 54 57 58 58 59 59 60 61 61 62 61 59 57 56 57 57 57 54 52 48 49 49 47 46 45 47 46 45 47 46 46 47
48 48 48 49 49 50 50 50 51 51 52 54 56 57 59 60 61 62 63 65 66 68 67 66 64 62 62 61 59 58 56 55 54 54 53 50 45 45 47 47 48 50 50
50 51 51 51 52 53 54 56 56 55 54 55 55 56 59 62 64 65 66 68 69 70 71 72 72 69 67 66 66 65 62 59 59 59 59 57 55 53 48 48 50 49 51
50 50 51 51 53 55 57 58 59 59 60 61 60 62 64 63 61 62 66 69 72 73 74 76 75 75 74 73 73 72 69 68 66 63 61 61 60 59 57 54 51 51 49
56 55 56 57 58 60 61 62 63 65 67 67 67 68 68 68 68 68 70 71 71 72 74 78 80 80 80 79 80 80 77 73 72 71 69 66 64 61 60 60 58 55 56
59 61 63 65 67 68 69 69 70 70 71 72 72 72 73 73 75 75 76 77 79 80 80 80 80 82 81 82 83 86 84 80 78 77 75 73 70 69 65 61 60 58 58
59 61 63 65 68 71 73 75 78 81 83 85 86 86 87 86 84 85 86 83 81 82 85 86 85 85 86 86 84 85 87 87 85 82 80 79 76 73 72 68 64 62 60
51 53 55 57 59 63 67 70 74 78 82 85 88 88 87 87 90 91 91 93 93 93 92 90 91 92 91 93 92 89 90 89 88 87 85 82 79 78 76 74 71 67 65
49 51 52 51 53 56 59 63 66 69 74 79 85 90 91 92 93 93 94 96 97 97 97 98 97 94 94 93 93 92 90 88 86 86 86 85 82 80 78 76 74 72 70
39 41 46 49 53 55 56 59 64 68 71 69 71 77 74 71 72 74 76 76 77 78 80 81 82 85 84 85 85 85 86 86 86 85 85 84 83 81 81 79 75 73 73
Wind_Direction
224 225 226 219 212 208 198 199 196 199 194 195 184 190 190 187 180 172 168 177 175 172 168 181 191 192 203 200 201 201 207 226 235 237 248 259 266 277 281 285 291 293 302
225 224 218 224 226 216 201 201 204 200 205 209 199 196 195 200 191 185 180 183 193 193 189 192 202 208 221 231 230 224 231 235 243 251 259 263 279 283 278 280 284 289 294
225 224 221 219 221 223 215 201 202 203 208 208 210 208 203 208 212 207 201 191 202 202 200 201 210 211 219 232 247 250 248 244 249 252 255 263 269 275 277 282 290 294 295
229 236 225 223 220 224 217 216 208 203 205 207 211 212 214 211 216 223 222 215 217 213 214 212 215 221 222 228 232 238 244 254 254 259 261 263 267 273 281 288 291 293 295
247 246 236 236 226 222 212 214 213 209 213 211 212 214 216 223 223 224 225 229 231 227 227 231 228 228 227 235 239 243 246 252 255 258 264 269 273 277 280 283 287 289 291
266 243 249 227 223 233 224 209 210 212 212 219 222 223 223 224 228 228 227 228 234 236 232 240 244 242 242 239 242 246 250 255 262 262 265 270 276 279 283 285 286 287 293
278 267 227 213 221 222 225 222 217 214 218 218 221 226 230 230 232 234 235 234 232 237 242 243 248 251 252 251 250 253 259 263 264 269 273 272 276 277 280 287 290 290 293
269 269 249 210 207 208 214 216 233 221 217 219 222 225 230 238 242 237 237 242 245 245 245 246 245 251 254 256 259 262 261 262 266 270 272 277 279 281 277 278 282 285 288
263 265 267 269 265 229 192 204 226 225 222 210 219 227 230 236 241 246 246 246 246 251 253 253 253 254 256 258 259 262 263 266 269 270 272 279 285 289 289 283 277 277 280
271 270 273 272 264 260 272 276 270 250 235 228 219 226 234 239 241 244 243 247 249 248 249 251 254 255 259 262 260 258 259 263 267 269 267 267 271 277 281 281 278 279 281
271 270 271 274 275 270 262 257 257 257 258 259 252 238 230 241 243 246 251 250 252 252 251 252 254 256 256 259 262 263 263 261 262 263 266 271 275 277 279 279 279 280 280
264 268 271 270 271 273 271 269 265 257 255 255 255 256 253 247 248 249 251 255 255 257 258 256 255 256 258 261 263 262 262 263 264 268 270 269 268 268 271 276 279 278 279
267 263 264 266 266 267 269 268 264 262 257 253 254 256 256 255 252 250 253 258 259 258 258 258 256 255 258 259 262 266 265 264 261 261 264 268 269 269 268 270 271 274 275
268 267 264 261 261 263 265 266 266 265 263 263 260 257 255 255 254 256 255 255 257 256 254 255 257 258 257 259 263 265 263 264 265 266 265 263 264 266 268 268 269 271 272
265 265 265 264 263 261 260 260 262 263 263 262 260 260 259 259 259 255 254 256 256 255 255 255 255 254 256 261 262 265 261 266 265 267 271 269 268 267 267 268 269 269 272
262 263 263 262 261 260 260 260 259 260 260 261 263 263 264 262 262 263 263 259 257 258 257 258 258 258 257 257 260 261 265 261 262 267 269 271 270 267 267 268 269 270 271
256 256 257 258 258 258 257 255 257 256 256 259 260 261 261 262 263 262 263 264 265 262 257 255 255 259 261 260 259 259 258 262 263 265 269 270 271 268 265 264 266 269 271
260 261 261 260 260 260 260 260 258 257 260 258 256 257 258 259 260 261 263 264 264 265 264 263 259 256 256 256 258 260 258 257 259 262 265 264 265 265 264 263 267 270 270
259 260 261 262 262 263 263 263 264 263 262 260 259 260 260 260 260 260 260 261 262 263 265 266 265 264 260 259 259 257 256 258 258 260 261 263 264 264 264 265 265 267 269
255 256 257 259 260 261 262 263 263 262 261 260 259 258 258 259 258 261 263 264 263 262 261 261 262 264 265 264 261 260 258 257 256 257 258 260 262 262 264 264 266 268 269
263 264 265 265 265 265 264 265 266 265 263 262 263 263 264 263 259 264 267 267 264 264 265 264 263 262 262 263 263 263 261 259 258 257 257 256 257 259 261 263 264 265 268
267 269 270 271 271 271 271 271 271 271 269 268 267 266 265 264 262 264 268 270 269 267 267 265 263 263 261 260 260 262 262 261 261 259 258 258 257 258 257 259 262 264 265
271 272 272 272 273 273 274 274 274 274 273 271 269 269 271 270 268 270 270 269 268 270 268 268 266 264 263 261 259 258 259 259 259 259 259 259 259 258 259 259 259 261 263
270 271 272 274 275 276 276 276 276 276 276 276 275 272 271 271 271 270 269 270 269 269 269 266 265 263 262 262 261 259 259 257 258 257 257 258 258 259 259 259 260 260 261
273 276 279 283 284 284 284 284 283 282 280 279 277 277 276 274 272 271 270 269 269 268 267 267 266 263 261 259 259 258 257 256 254 253 253 254 255 256 257 257 258 258 259
278 286 289 289 290 291 291 291 291 290 289 285 278 275 274 272 269 268 268 266 265 264 263 262 261 260 258 255 253 253 251 250 250 248 247 248 249 251 253 254 254 254 256